Time,TemperatureF,DewpointF,PressureIn,WindDirection,WindDirectionDegrees,WindSpeedMPH,WindSpeedGustMPH,Humidity,HourlyPrecipIn,Conditions,Clouds,dailyrainin,SoftwareType,DateUTC
2013-05-02 00:01:00,59.6,52.7,30.15,SE,142,0.0,0.0,78,0.00,,,0.00,WeatherCatV1.15B25,2013-05-02 04:01:00,
2013-05-02 00:06:00,59.4,52.5,30.15,SE,142,0.0,0.0,78,0.00,,,0.00,WeatherCatV1.15B25,2013-05-02 04:06:00,
2013-05-02 00:11:00,59.2,52.3,30.15,SE,142,0.0,0.0,78,0.00,,,0.00,WeatherCatV1.15B25,2013-05-02 04:11:00,
2013-05-02 00:16:00,58.9,52.0,30.15,SE,142,0.0,0.0,78,0.00,,,0.00,WeatherCatV1.15B25,2013-05-02 04:16:00,
2013-05-02 00:21:00,58.6,52.1,30.15,SE,142,0.0,1.0,79,0.00,,,0.00,WeatherCatV1.15B25,2013-05-02 04:21:00,
2013-05-02 00:26:00,58.5,52.0,30.15,SE,142,0.0,1.0,79,0.00,,,0.00,WeatherCatV1.15B25,2013-05-02 04:26:00,
2013-05-02 00:31:00,58.3,51.8,30.15,SE,142,0.0,0.0,79,0.00,,,0.00,WeatherCatV1.15B25,2013-05-02 04:31:00,
2013-05-02 00:36:00,58.0,51.5,30.15,SE,142,0.0,0.0,79,0.00,,,0.00,WeatherCatV1.15B25,2013-05-02 04:36:00,
2013-05-02 00:41:00,57.8,51.7,30.15,SE,142,0.0,0.0,80,0.00,,,0.00,WeatherCatV1.15B25,2013-05-02 04:41:00,
2013-05-02 00:46:00,57.6,51.5,30.15,SE,140,0.0,2.0,80,0.00,,,0.00,WeatherCatV1.15B25,2013-05-02 04:46:00,
2013-05-02 00:51:00,57.7,51.6,30.15,SE,126,4.0,4.0,80,0.00,,,0.00,WeatherCatV1.15B25,2013-05-02 04:51:00,
2013-05-02 00:56:00,57.8,51.3,30.15,ESE,120,0.0,3.0,79,0.00,,,0.00,WeatherCatV1.15B25,2013-05-02 04:56:00,
2013-05-02 01:01:00,57.8,51.3,30.15,ESE,120,3.0,3.0,79,0.00,,,0.00,WeatherCatV1.15B25,2013-05-02 05:01:00,
2013-05-02 01:06:00,57.8,51.0,30.15,ESE,119,0.0,2.0,78,0.00,,,0.00,WeatherCatV1.15B25,2013-05-02 05:06:00,
2013-05-02 01:11:00,57.9,51.1,30.15,ESE,119,0.0,1.0,78,0.00,,,0.00,WeatherCatV1.15B25,2013-05-02 05:11:00,
2013-05-02 01:16:00,57.8,51.0,30.15,ESE,119,0.0,1.0,78,0.00,,,0.00,WeatherCatV1.15B25,2013-05-02 05:16:00,
2013-05-02 01:21:00,57.7,50.9,30.15,ESE,119,0.0,2.0,78,0.00,,,0.00,WeatherCatV1.15B25,2013-05-02 05:21:00,
2013-05-02 01:26:00,57.6,50.8,30.15,ESE,119,0.0,1.0,78,0.00,,,0.00,WeatherCatV1.15B25,2013-05-02 05:26:00,
2013-05-02 01:31:00,57.4,50.6,30.15,ESE,119,0.0,0.0,78,0.00,,,0.00,WeatherCatV1.15B25,2013-05-02 05:31:00,
2013-05-02 01:36:00,57.1,50.6,30.15,ESE,119,0.0,1.0,79,0.00,,,0.00,WeatherCatV1.15B25,2013-05-02 05:36:00,
2013-05-02 01:41:00,56.8,50.4,30.14,ESE,119,0.0,0.0,79,0.00,,,0.00,WeatherCatV1.15B25,2013-05-02 05:41:00,
2013-05-02 01:46:00,56.6,50.5,30.14,ESE,119,0.0,1.0,80,0.00,,,0.00,WeatherCatV1.15B25,2013-05-02 05:46:00,
2013-05-02 01:51:00,56.5,50.7,30.14,ESE,119,0.0,2.0,81,0.00,,,0.00,WeatherCatV1.15B25,2013-05-02 05:51:00,
2013-05-02 01:56:00,56.4,50.6,30.14,ESE,119,0.0,0.0,81,0.00,,,0.00,WeatherCatV1.15B25,2013-05-02 05:56:00,
2013-05-02 02:01:00,56.3,50.9,30.14,ESE,119,0.0,1.0,82,0.00,,,0.00,WeatherCatV1.15B25,2013-05-02 06:01:00,
2013-05-02 02:06:00,56.7,50.9,30.14,ESE,119,2.0,2.0,81,0.00,,,0.00,WeatherCatV1.15B25,2013-05-02 06:06:00,
2013-05-02 02:11:00,57.0,50.9,30.14,ESE,119,0.0,1.0,80,0.00,,,0.00,WeatherCatV1.15B25,2013-05-02 06:11:00,
2013-05-02 02:16:00,57.2,51.1,30.14,ESE,119,0.0,1.0,80,0.00,,,0.00,WeatherCatV1.15B25,2013-05-02 06:16:00,
2013-05-02 02:21:00,57.2,50.7,30.14,ESE,119,0.0,2.0,79,0.00,,,0.00,WeatherCatV1.15B25,2013-05-02 06:21:00,
2013-05-02 02:26:00,57.4,50.9,30.14,ESE,119,1.0,1.0,79,0.00,,,0.00,WeatherCatV1.15B25,2013-05-02 06:26:00,
2013-05-02 02:31:00,57.5,51.0,30.14,ESE,119,0.0,0.0,79,0.00,,,0.00,WeatherCatV1.15B25,2013-05-02 06:31:00,
2013-05-02 02:36:00,57.5,51.0,30.14,ESE,119,0.0,1.0,79,0.00,,,0.00,WeatherCatV1.15B25,2013-05-02 06:36:00,
2013-05-02 02:41:00,57.3,50.8,30.13,ESE,119,0.0,0.0,79,0.00,,,0.00,WeatherCatV1.15B25,2013-05-02 06:41:00,
2013-05-02 02:46:00,57.1,51.0,30.13,ESE,119,0.0,0.0,80,0.00,,,0.00,WeatherCatV1.15B25,2013-05-02 06:46:00,
2013-05-02 02:51:00,56.9,51.1,30.14,ESE,119,0.0,0.0,81,0.00,,,0.00,WeatherCatV1.15B25,2013-05-02 06:51:00,
2013-05-02 02:56:00,56.7,50.9,30.13,ESE,119,0.0,0.0,81,0.00,,,0.00,WeatherCatV1.15B25,2013-05-02 06:56:00,
2013-05-02 03:01:00,56.6,50.8,30.13,ESE,119,0.0,0.0,81,0.00,,,0.00,WeatherCatV1.15B25,2013-05-02 07:01:00,
2013-05-02 03:06:00,56.6,51.2,30.13,ESE,119,1.0,1.0,82,0.00,,,0.00,WeatherCatV1.15B25,2013-05-02 07:06:00,
2013-05-02 03:11:00,56.9,51.5,30.13,ESE,119,0.0,0.0,82,0.00,,,0.00,WeatherCatV1.15B25,2013-05-02 07:11:00,
2013-05-02 03:16:00,57.1,51.3,30.13,ESE,119,0.0,0.0,81,0.00,,,0.00,WeatherCatV1.15B25,2013-05-02 07:16:00,
2013-05-02 03:21:00,57.1,51.3,30.13,ESE,119,0.0,0.0,81,0.00,,,0.00,WeatherCatV1.15B25,2013-05-02 07:21:00,
2013-05-02 03:26:00,57.2,51.8,30.13,ESE,119,0.0,1.0,82,0.00,,,0.00,WeatherCatV1.15B25,2013-05-02 07:26:00,
2013-05-02 03:31:00,57.3,51.5,30.13,ESE,119,0.0,0.0,81,0.00,,,0.00,WeatherCatV1.15B25,2013-05-02 07:31:00,
2013-05-02 03:36:00,57.2,51.4,30.13,ESE,119,0.0,0.0,81,0.00,,,0.00,WeatherCatV1.15B25,2013-05-02 07:36:00,
2013-05-02 03:41:00,57.0,51.2,30.13,ESE,119,0.0,0.0,81,0.00,,,0.00,WeatherCatV1.15B25,2013-05-02 07:41:00,
2013-05-02 03:46:00,56.8,51.4,30.13,ESE,119,0.0,0.0,82,0.00,,,0.00,WeatherCatV1.15B25,2013-05-02 07:46:00,
2013-05-02 03:51:00,56.6,51.2,30.12,ESE,119,0.0,0.0,82,0.00,,,0.00,WeatherCatV1.15B25,2013-05-02 07:51:00,
2013-05-02 03:56:00,56.4,51.3,30.12,ESE,119,0.0,0.0,83,0.00,,,0.00,WeatherCatV1.15B25,2013-05-02 07:56:00,
2013-05-02 04:01:00,56.2,50.8,30.12,ESE,119,0.0,0.0,82,0.00,,,0.00,WeatherCatV1.15B25,2013-05-02 08:01:00,
2013-05-02 04:06:00,55.9,50.8,30.12,ESE,119,0.0,0.0,83,0.00,,,0.00,WeatherCatV1.15B25,2013-05-02 08:06:00,
2013-05-02 04:11:00,55.9,51.1,30.13,ESE,119,0.0,1.0,84,0.00,,,0.00,WeatherCatV1.15B25,2013-05-02 08:11:00,
2013-05-02 04:16:00,56.1,51.0,30.13,ESE,119,0.0,1.0,83,0.00,,,0.00,WeatherCatV1.15B25,2013-05-02 08:16:00,
2013-05-02 04:21:00,56.4,51.3,30.13,ESE,119,1.0,2.0,83,0.00,,,0.00,WeatherCatV1.15B25,2013-05-02 08:21:00,
2013-05-02 04:26:00,56.6,51.2,30.13,ESE,119,1.0,3.0,82,0.00,,,0.00,WeatherCatV1.15B25,2013-05-02 08:26:00,
2013-05-02 04:31:00,56.7,51.3,30.13,SE,130,2.0,2.0,82,0.00,,,0.00,WeatherCatV1.15B25,2013-05-02 08:31:00,
2013-05-02 04:36:00,56.8,51.0,30.13,SE,128,1.0,1.0,81,0.00,,,0.00,WeatherCatV1.15B25,2013-05-02 08:36:00,
2013-05-02 04:41:00,56.8,51.0,30.13,SE,128,0.0,2.0,81,0.00,,,0.00,WeatherCatV1.15B25,2013-05-02 08:41:00,
2013-05-02 04:46:00,56.8,51.0,30.13,ESE,119,2.0,3.0,81,0.00,,,0.00,WeatherCatV1.15B25,2013-05-02 08:46:00,
2013-05-02 04:51:00,56.9,50.8,30.13,ESE,112,3.0,3.0,80,0.00,,,0.00,WeatherCatV1.15B25,2013-05-02 08:51:00,
2013-05-02 04:56:00,56.9,50.8,30.13,ESE,111,0.0,2.0,80,0.00,,,0.00,WeatherCatV1.15B25,2013-05-02 08:56:00,
2013-05-02 05:01:00,56.9,50.8,30.13,ESE,110,1.0,2.0,80,0.00,,,0.00,WeatherCatV1.15B25,2013-05-02 09:01:00,
2013-05-02 05:06:00,56.8,50.7,30.13,ESE,110,0.0,0.0,80,0.00,,,0.00,WeatherCatV1.15B25,2013-05-02 09:06:00,
2013-05-02 05:11:00,56.7,50.6,30.13,ESE,110,0.0,2.0,80,0.00,,,0.00,WeatherCatV1.15B25,2013-05-02 09:11:00,
2013-05-02 05:16:00,56.6,50.5,30.13,ESE,110,0.0,1.0,80,0.00,,,0.00,WeatherCatV1.15B25,2013-05-02 09:16:00,
2013-05-02 05:21:00,56.5,50.4,30.13,ESE,114,1.0,3.0,80,0.00,,,0.00,WeatherCatV1.15B25,2013-05-02 09:21:00,
2013-05-02 05:26:00,56.4,50.3,30.13,ESE,114,1.0,2.0,80,0.00,,,0.00,WeatherCatV1.15B25,2013-05-02 09:26:00,
2013-05-02 05:31:00,56.3,50.2,30.13,ESE,114,0.0,0.0,80,0.00,,,0.00,WeatherCatV1.15B25,2013-05-02 09:31:00,
2013-05-02 05:36:00,56.2,50.1,30.13,ESE,114,0.0,0.0,80,0.00,,,0.00,WeatherCatV1.15B25,2013-05-02 09:36:00,
2013-05-02 05:41:00,56.0,50.2,30.13,ESE,114,0.0,2.0,81,0.00,,,0.00,WeatherCatV1.15B25,2013-05-02 09:41:00,
2013-05-02 05:46:00,56.0,50.2,30.13,ESE,114,0.0,0.0,81,0.00,,,0.00,WeatherCatV1.15B25,2013-05-02 09:46:00,
2013-05-02 05:51:00,55.9,50.2,30.13,ESE,114,0.0,1.0,81,0.00,,,0.00,WeatherCatV1.15B25,2013-05-02 09:51:00,
2013-05-02 05:56:00,55.8,50.1,30.13,ESE,114,0.0,0.0,81,0.00,,,0.00,WeatherCatV1.15B25,2013-05-02 09:56:00,
2013-05-02 06:01:00,55.7,50.0,30.13,ESE,114,0.0,1.0,81,0.00,,,0.00,WeatherCatV1.15B25,2013-05-02 10:01:00,
2013-05-02 06:06:00,55.5,50.1,30.13,ESE,114,0.0,1.0,82,0.00,,,0.00,WeatherCatV1.15B25,2013-05-02 10:06:00,
2013-05-02 06:11:00,55.3,49.9,30.13,ESE,114,0.0,1.0,82,0.00,,,0.00,WeatherCatV1.15B25,2013-05-02 10:11:00,
2013-05-02 06:16:00,55.2,49.8,30.13,ESE,114,0.0,1.0,82,0.00,,,0.00,WeatherCatV1.15B25,2013-05-02 10:16:00,
2013-05-02 06:21:00,55.1,49.7,30.13,ESE,114,0.0,0.0,82,0.00,,,0.00,WeatherCatV1.15B25,2013-05-02 10:21:00,
2013-05-02 06:26:00,55.1,49.7,30.13,ESE,114,0.0,1.0,82,0.00,,,0.00,WeatherCatV1.15B25,2013-05-02 10:26:00,
2013-05-02 06:31:00,55.1,49.7,30.13,ESE,114,0.0,0.0,82,0.00,,,0.00,WeatherCatV1.15B25,2013-05-02 10:31:00,
2013-05-02 06:36:00,55.0,49.9,30.13,ESE,114,0.0,1.0,83,0.00,,,0.00,WeatherCatV1.15B25,2013-05-02 10:36:00,
2013-05-02 06:41:00,55.1,50.0,30.13,ESE,114,0.0,0.0,83,0.00,,,0.00,WeatherCatV1.15B25,2013-05-02 10:41:00,
2013-05-02 06:46:00,55.1,50.0,30.14,ESE,114,0.0,1.0,83,0.00,,,0.00,WeatherCatV1.15B25,2013-05-02 10:46:00,
2013-05-02 06:51:00,55.1,49.7,30.14,ESE,114,0.0,0.0,82,0.00,,,0.00,WeatherCatV1.15B25,2013-05-02 10:51:00,
2013-05-02 06:56:00,55.1,49.7,30.14,ESE,114,1.0,3.0,82,0.00,,,0.00,WeatherCatV1.15B25,2013-05-02 10:56:00,
2013-05-02 07:01:00,55.1,49.7,30.14,ESE,114,1.0,1.0,82,0.00,,,0.00,WeatherCatV1.15B25,2013-05-02 11:01:00,
2013-05-02 07:06:00,55.2,49.8,30.14,ESE,113,1.0,4.0,82,0.00,,,0.00,WeatherCatV1.15B25,2013-05-02 11:06:00,
2013-05-02 07:11:00,55.5,50.1,30.14,ESE,111,2.0,3.0,82,0.00,,,0.00,WeatherCatV1.15B25,2013-05-02 11:11:00,
2013-05-02 07:16:00,56.0,50.2,30.14,ESE,113,2.0,4.0,81,0.00,,,0.00,WeatherCatV1.15B25,2013-05-02 11:16:00,
2013-05-02 07:21:00,56.6,50.5,30.14,ESE,114,2.0,2.0,80,0.00,,,0.00,WeatherCatV1.15B25,2013-05-02 11:21:00,
2013-05-02 07:26:00,57.1,50.6,30.14,ESE,113,1.0,5.0,79,0.00,,,0.00,WeatherCatV1.15B25,2013-05-02 11:26:00,
2013-05-02 07:31:00,57.5,51.0,30.14,ESE,114,2.0,5.0,79,0.00,,,0.00,WeatherCatV1.15B25,2013-05-02 11:31:00,
2013-05-02 07:36:00,57.8,51.0,30.14,ESE,107,2.0,3.0,78,0.00,,,0.00,WeatherCatV1.15B25,2013-05-02 11:36:00,
2013-05-02 07:41:00,58.1,50.9,30.15,ESE,109,2.0,7.0,77,0.00,,,0.00,WeatherCatV1.15B25,2013-05-02 11:41:00,
2013-05-02 07:46:00,58.4,51.2,30.15,ESE,112,7.0,7.0,77,0.00,,,0.00,WeatherCatV1.15B25,2013-05-02 11:46:00,
2013-05-02 07:51:00,58.8,51.2,30.14,ESE,113,3.0,4.0,76,0.00,,,0.00,WeatherCatV1.15B25,2013-05-02 11:51:00,
2013-05-02 07:53:00,58.9,51.0,30.14,ESE,115,4.0,5.0,75,0.00,,,0.00,WeatherCatV1.15B25,2013-05-02 11:53:00,
2013-05-02 07:58:00,59.4,51.5,30.15,East,101,2.0,5.0,75,0.00,,,0.00,WeatherCatV1.15B25,2013-05-02 11:58:00,
2013-05-02 08:03:00,59.7,51.0,30.15,SE,130,2.0,7.0,73,0.00,,,0.00,WeatherCatV1.15B25,2013-05-02 12:03:00,
2013-05-02 08:08:00,60.0,51.3,30.15,ESE,103,4.0,7.0,73,0.00,,,0.00,WeatherCatV1.15B25,2013-05-02 12:08:00,
2013-05-02 08:13:00,60.2,51.1,30.15,SE,132,7.0,9.0,72,0.00,,,0.00,WeatherCatV1.15B25,2013-05-02 12:13:00,
2013-05-02 08:18:00,60.5,51.4,30.15,ESE,109,3.0,7.0,72,0.00,,,0.00,WeatherCatV1.15B25,2013-05-02 12:18:00,
2013-05-02 08:23:00,60.7,51.6,30.15,SE,140,3.0,9.0,72,0.00,,,0.00,WeatherCatV1.15B25,2013-05-02 12:23:00,
2013-05-02 08:28:00,60.9,51.4,30.15,SSE,147,4.0,8.0,71,0.00,,,0.00,WeatherCatV1.15B25,2013-05-02 12:28:00,
2013-05-02 08:33:00,61.4,52.3,30.15,East,92,3.0,5.0,72,0.00,,,0.00,WeatherCatV1.15B25,2013-05-02 12:33:00,
2013-05-02 08:38:00,61.6,51.7,30.16,SE,128,2.0,9.0,70,0.00,,,0.00,WeatherCatV1.15B25,2013-05-02 12:38:00,
2013-05-02 08:43:00,61.7,51.8,30.16,SE,144,6.0,8.0,70,0.00,,,0.00,WeatherCatV1.15B25,2013-05-02 12:43:00,
2013-05-02 08:48:00,62.0,52.5,30.16,East,93,6.0,7.0,71,0.00,,,0.00,WeatherCatV1.15B25,2013-05-02 12:48:00,
2013-05-02 08:53:00,62.5,52.2,30.16,SE,131,4.0,7.0,69,0.00,,,0.00,WeatherCatV1.15B25,2013-05-02 12:53:00,
2013-05-02 08:58:00,63.0,52.7,30.16,ESE,108,8.0,8.0,69,0.00,,,0.00,WeatherCatV1.15B25,2013-05-02 12:58:00,
2013-05-02 09:03:00,63.3,52.6,30.16,South,180,2.0,6.0,68,0.00,,,0.00,WeatherCatV1.15B25,2013-05-02 13:03:00,
2013-05-02 09:08:00,63.6,52.0,30.15,ESE,107,4.0,7.0,66,0.00,,,0.00,WeatherCatV1.15B25,2013-05-02 13:08:00,
2013-05-02 09:13:00,63.9,52.7,30.16,ESE,120,4.0,9.0,67,0.00,,,0.00,WeatherCatV1.15B25,2013-05-02 13:13:00,
2013-05-02 09:18:00,64.1,52.5,30.16,SE,126,4.0,9.0,66,0.00,,,0.00,WeatherCatV1.15B25,2013-05-02 13:18:00,
2013-05-02 09:23:00,64.4,52.8,30.16,ESE,122,4.0,8.0,66,0.00,,,0.00,WeatherCatV1.15B25,2013-05-02 13:23:00,
2013-05-02 09:28:00,64.8,53.6,30.16,ESE,120,3.0,5.0,67,0.00,,,0.00,WeatherCatV1.15B25,2013-05-02 13:28:00,
2013-05-02 09:33:00,65.3,53.6,30.16,South,175,8.0,8.0,66,0.00,,,0.00,WeatherCatV1.15B25,2013-05-02 13:33:00,
2013-05-02 09:38:00,65.5,53.8,30.16,SE,136,5.0,8.0,66,0.00,,,0.00,WeatherCatV1.15B25,2013-05-02 13:38:00,
2013-05-02 09:43:00,65.8,54.1,30.16,ESE,118,3.0,8.0,66,0.00,,,0.00,WeatherCatV1.15B25,2013-05-02 13:43:00,
2013-05-02 09:46:00,66.1,54.0,30.16,South,169,3.0,6.0,65,0.00,,,0.00,WeatherCatV1.15B25,2013-05-02 13:46:00,
2013-05-02 09:51:00,66.6,54.0,30.16,South,171,4.0,7.0,64,0.00,,,0.00,WeatherCatV1.15B25,2013-05-02 13:51:00,
2013-05-02 09:56:00,66.9,53.9,30.16,South,187,3.0,10.0,63,0.00,,,0.00,WeatherCatV1.15B25,2013-05-02 13:56:00,
2013-05-02 10:01:00,67.1,54.1,30.16,SSW,209,1.0,8.0,63,0.00,,,0.00,WeatherCatV1.15B25,2013-05-02 14:01:00,
2013-05-02 10:06:00,67.3,54.3,30.16,South,171,7.0,9.0,63,0.00,,,0.00,WeatherCatV1.15B25,2013-05-02 14:06:00,
2013-05-02 10:11:00,67.5,54.0,30.16,SSE,159,2.0,8.0,62,0.00,,,0.00,WeatherCatV1.15B25,2013-05-02 14:11:00,
2013-05-02 10:16:00,67.9,54.4,30.16,SSE,159,9.0,11.0,62,0.00,,,0.00,WeatherCatV1.15B25,2013-05-02 14:16:00,
2013-05-02 10:21:00,68.1,54.1,30.16,SSE,165,6.0,11.0,61,0.00,,,0.00,WeatherCatV1.15B25,2013-05-02 14:21:00,
2013-05-02 10:26:00,68.3,54.3,30.15,South,173,9.0,9.0,61,0.00,,,0.00,WeatherCatV1.15B25,2013-05-02 14:26:00,
2013-05-02 10:31:00,68.5,55.4,30.15,SSW,194,2.0,8.0,63,0.00,,,0.00,WeatherCatV1.15B25,2013-05-02 14:31:00,
2013-05-02 10:36:00,68.9,56.2,30.16,South,171,7.0,7.0,64,0.00,,,0.00,WeatherCatV1.15B25,2013-05-02 14:36:00,
2013-05-02 10:41:00,69.3,55.7,30.16,South,178,5.0,8.0,62,0.00,,,0.00,WeatherCatV1.15B25,2013-05-02 14:41:00,
2013-05-02 10:46:00,69.7,55.6,30.15,SSE,168,3.0,9.0,61,0.00,,,0.00,WeatherCatV1.15B25,2013-05-02 14:46:00,
2013-05-02 10:51:00,70.1,55.6,30.15,SSE,167,6.0,6.0,60,0.00,,,0.00,WeatherCatV1.15B25,2013-05-02 14:51:00,
2013-05-02 10:56:00,70.1,55.6,30.15,SSE,168,2.0,6.0,60,0.00,,,0.00,WeatherCatV1.15B25,2013-05-02 14:56:00,
2013-05-02 11:01:00,70.3,55.3,30.15,SSW,199,5.0,11.0,59,0.00,,,0.00,WeatherCatV1.15B25,2013-05-02 15:01:00,
2013-05-02 11:06:00,70.4,55.8,30.15,SW,235,5.0,8.0,60,0.00,,,0.00,WeatherCatV1.15B25,2013-05-02 15:06:00,
2013-05-02 11:11:00,70.7,55.2,30.15,SE,125,6.0,11.0,58,0.00,,,0.00,WeatherCatV1.15B25,2013-05-02 15:11:00,
2013-05-02 11:16:00,70.9,55.4,30.15,SSE,165,5.0,9.0,58,0.00,,,0.00,WeatherCatV1.15B25,2013-05-02 15:16:00,
2013-05-02 11:21:00,71.0,56.4,30.15,SSW,192,5.0,9.0,60,0.00,,,0.00,WeatherCatV1.15B25,2013-05-02 15:21:00,
2013-05-02 11:26:00,71.1,55.6,30.15,SW,219,5.0,10.0,58,0.00,,,0.00,WeatherCatV1.15B25,2013-05-02 15:26:00,
2013-05-02 11:31:00,70.9,55.8,30.15,SSE,159,7.0,13.0,59,0.00,,,0.00,WeatherCatV1.15B25,2013-05-02 15:31:00,
2013-05-02 11:36:00,70.7,55.7,30.15,South,181,12.0,12.0,59,0.00,,,0.00,WeatherCatV1.15B25,2013-05-02 15:36:00,
2013-05-02 11:41:00,70.4,55.4,30.15,South,188,5.0,13.0,59,0.00,,,0.00,WeatherCatV1.15B25,2013-05-02 15:41:00,
2013-05-02 11:46:00,70.7,55.7,30.15,SSW,212,7.0,8.0,59,0.00,,,0.00,WeatherCatV1.15B25,2013-05-02 15:46:00,
2013-05-02 11:51:00,70.9,55.8,30.15,SW,236,7.0,9.0,59,0.00,,,0.00,WeatherCatV1.15B25,2013-05-02 15:51:00,
2013-05-02 11:56:00,71.3,56.7,30.15,SSW,201,5.0,7.0,60,0.00,,,0.00,WeatherCatV1.15B25,2013-05-02 15:56:00,
2013-05-02 12:01:00,71.6,57.0,30.15,ESE,108,4.0,9.0,60,0.00,,,0.00,WeatherCatV1.15B25,2013-05-02 16:01:00,
2013-05-02 12:06:00,71.8,56.2,30.15,SSW,208,4.0,8.0,58,0.00,,,0.00,WeatherCatV1.15B25,2013-05-02 16:06:00,
2013-05-02 12:11:00,72.2,58.0,30.15,SSW,193,5.0,7.0,61,0.00,,,0.00,WeatherCatV1.15B25,2013-05-02 16:11:00,
2013-05-02 12:16:00,72.6,57.0,30.15,SE,142,8.0,9.0,58,0.00,,,0.00,WeatherCatV1.15B25,2013-05-02 16:16:00,
2013-05-02 12:21:00,72.6,56.5,30.14,SE,142,4.0,8.0,57,0.00,,,0.00,WeatherCatV1.15B25,2013-05-02 16:21:00,
2013-05-02 12:26:00,73.0,57.3,30.14,SSW,202,9.0,12.0,58,0.00,,,0.00,WeatherCatV1.15B25,2013-05-02 16:26:00,
2013-05-02 12:31:00,73.1,57.9,30.14,South,184,4.0,6.0,59,0.00,,,0.00,WeatherCatV1.15B25,2013-05-02 16:31:00,
2013-05-02 12:36:00,73.3,56.6,30.14,South,171,4.0,7.0,56,0.00,,,0.00,WeatherCatV1.15B25,2013-05-02 16:36:00,
2013-05-02 12:41:00,73.5,57.8,30.14,South,190,4.0,7.0,58,0.00,,,0.00,WeatherCatV1.15B25,2013-05-02 16:41:00,
2013-05-02 12:46:00,73.7,56.5,30.14,South,187,2.0,11.0,55,0.00,,,0.00,WeatherCatV1.15B25,2013-05-02 16:46:00,
2013-05-02 12:51:00,73.9,57.2,30.13,SE,145,2.0,8.0,56,0.00,,,0.00,WeatherCatV1.15B25,2013-05-02 16:51:00,
2013-05-02 12:56:00,74.1,56.9,30.13,SSE,163,3.0,7.0,55,0.00,,,0.00,WeatherCatV1.15B25,2013-05-02 16:56:00,
2013-05-02 13:01:00,74.3,57.1,30.13,SSW,192,3.0,8.0,55,0.00,,,0.00,WeatherCatV1.15B25,2013-05-02 17:01:00,
2013-05-02 13:06:00,74.4,56.7,30.13,SE,141,9.0,9.0,54,0.00,,,0.00,WeatherCatV1.15B25,2013-05-02 17:06:00,
2013-05-02 13:11:00,74.5,55.7,30.13,South,191,6.0,10.0,52,0.00,,,0.00,WeatherCatV1.15B25,2013-05-02 17:11:00,
2013-05-02 13:16:00,74.6,56.8,30.13,South,179,5.0,7.0,54,0.00,,,0.00,WeatherCatV1.15B25,2013-05-02 17:16:00,
2013-05-02 13:21:00,74.9,58.1,30.13,South,179,3.0,10.0,56,0.00,,,0.00,WeatherCatV1.15B25,2013-05-02 17:21:00,
2013-05-02 13:26:00,75.2,56.3,30.12,South,173,4.0,11.0,52,0.00,,,0.00,WeatherCatV1.15B25,2013-05-02 17:26:00,
2013-05-02 13:31:00,75.3,58.0,30.12,SSW,205,6.0,10.0,55,0.00,,,0.00,WeatherCatV1.15B25,2013-05-02 17:31:00,
2013-05-02 13:36:00,75.2,55.8,30.12,SSW,194,7.0,9.0,51,0.00,,,0.00,WeatherCatV1.15B25,2013-05-02 17:36:00,
2013-05-02 13:41:00,75.2,55.8,30.12,SE,143,8.0,13.0,51,0.00,,,0.00,WeatherCatV1.15B25,2013-05-02 17:41:00,
2013-05-02 13:46:00,74.9,57.6,30.12,SSE,167,6.0,8.0,55,0.00,,,0.00,WeatherCatV1.15B25,2013-05-02 17:46:00,
2013-05-02 13:51:00,75.2,56.9,30.12,South,178,6.0,10.0,53,0.00,,,0.00,WeatherCatV1.15B25,2013-05-02 17:51:00,
2013-05-02 13:56:00,75.4,57.1,30.12,SSW,193,9.0,11.0,53,0.00,,,0.00,WeatherCatV1.15B25,2013-05-02 17:56:00,
2013-05-02 14:01:00,75.3,55.4,30.11,South,173,8.0,10.0,50,0.00,,,0.00,WeatherCatV1.15B25,2013-05-02 18:01:00,
2013-05-02 14:06:00,75.5,56.1,30.11,WSW,249,7.0,8.0,51,0.00,,,0.00,WeatherCatV1.15B25,2013-05-02 18:06:00,
2013-05-02 14:11:00,75.9,54.8,30.11,SSW,195,4.0,10.0,48,0.00,,,0.00,WeatherCatV1.15B25,2013-05-02 18:11:00,
2013-05-02 14:16:00,76.2,54.5,30.11,SSW,196,3.0,12.0,47,0.00,,,0.00,WeatherCatV1.15B25,2013-05-02 18:16:00,
2013-05-02 14:21:00,76.4,55.2,30.11,SW,217,4.0,16.0,48,0.00,,,0.00,WeatherCatV1.15B25,2013-05-02 18:21:00,
2013-05-02 14:26:00,76.4,54.1,30.11,SSW,202,3.0,12.0,46,0.00,,,0.00,WeatherCatV1.15B25,2013-05-02 18:26:00,
2013-05-02 14:31:00,76.6,54.2,30.11,South,173,3.0,7.0,46,0.00,,,0.00,WeatherCatV1.15B25,2013-05-02 18:31:00,
2013-05-02 14:36:00,76.7,54.9,30.11,ESE,109,10.0,10.0,47,0.00,,,0.00,WeatherCatV1.15B25,2013-05-02 18:36:00,
2013-05-02 14:41:00,76.4,53.5,30.11,SSE,153,5.0,8.0,45,0.00,,,0.00,WeatherCatV1.15B25,2013-05-02 18:41:00,
2013-05-02 14:46:00,76.0,53.7,30.10,SSE,148,3.0,10.0,46,0.00,,,0.00,WeatherCatV1.15B25,2013-05-02 18:46:00,
2013-05-02 14:51:00,76.3,55.1,30.10,SSE,166,7.0,9.0,48,0.00,,,0.00,WeatherCatV1.15B25,2013-05-02 18:51:00,
2013-05-02 14:56:00,76.9,55.7,30.10,SE,134,3.0,8.0,48,0.00,,,0.00,WeatherCatV1.15B25,2013-05-02 18:56:00,
2013-05-02 15:01:00,76.9,54.5,30.10,ESE,106,7.0,13.0,46,0.00,,,0.00,WeatherCatV1.15B25,2013-05-02 19:01:00,
2013-05-02 15:06:00,76.2,54.5,30.10,South,178,4.0,9.0,47,0.00,,,0.00,WeatherCatV1.15B25,2013-05-02 19:06:00,
2013-05-02 15:12:00,76.3,54.0,30.10,SE,142,4.0,10.0,46,0.00,,,0.00,WeatherCatV1.15B25,2013-05-02 19:12:00,
2013-05-02 15:17:00,76.3,54.6,30.10,SE,138,6.0,6.0,47,0.00,,,0.00,WeatherCatV1.15B25,2013-05-02 19:17:00,
2013-05-02 15:22:00,76.7,54.9,30.10,South,188,3.0,9.0,47,0.00,,,0.00,WeatherCatV1.15B25,2013-05-02 19:22:00,
2013-05-02 15:27:00,76.9,53.3,30.09,SE,126,10.0,12.0,44,0.00,,,0.00,WeatherCatV1.15B25,2013-05-02 19:27:00,
2013-05-02 15:32:00,76.7,53.1,30.09,SE,139,2.0,11.0,44,0.00,,,0.00,WeatherCatV1.15B25,2013-05-02 19:32:00,
2013-05-02 15:37:00,76.8,52.6,30.09,SSE,165,9.0,13.0,43,0.00,,,0.00,WeatherCatV1.15B25,2013-05-02 19:37:00,
2013-05-02 15:42:00,76.7,52.5,30.09,SE,136,5.0,10.0,43,0.00,,,0.00,WeatherCatV1.15B25,2013-05-02 19:42:00,
2013-05-02 15:47:00,76.6,53.0,30.08,SSE,153,11.0,14.0,44,0.00,,,0.00,WeatherCatV1.15B25,2013-05-02 19:47:00,
2013-05-02 15:52:00,76.9,52.7,30.08,South,177,7.0,11.0,43,0.00,,,0.00,WeatherCatV1.15B25,2013-05-02 19:52:00,
2013-05-02 15:57:00,77.1,52.9,30.08,SE,144,12.0,13.0,43,0.00,,,0.00,WeatherCatV1.15B25,2013-05-02 19:57:00,
2013-05-02 16:02:00,77.4,52.5,30.08,SSE,153,8.0,14.0,42,0.00,,,0.00,WeatherCatV1.15B25,2013-05-02 20:02:00,
2013-05-02 16:07:00,77.7,53.4,30.07,SSE,168,7.0,12.0,43,0.00,,,0.00,WeatherCatV1.15B25,2013-05-02 20:07:00,
2013-05-02 16:12:00,77.5,53.2,30.08,ESE,106,9.0,14.0,43,0.00,,,0.00,WeatherCatV1.15B25,2013-05-02 20:12:00,
2013-05-02 16:17:00,77.5,52.6,30.07,SE,128,3.0,7.0,42,0.00,,,0.00,WeatherCatV1.15B25,2013-05-02 20:17:00,
2013-05-02 16:22:00,77.7,54.0,30.07,SE,144,6.0,8.0,44,0.00,,,0.00,WeatherCatV1.15B25,2013-05-02 20:22:00,
2013-05-02 16:27:00,77.1,54.7,30.07,ESE,109,7.0,10.0,46,0.00,,,0.00,WeatherCatV1.15B25,2013-05-02 20:27:00,
2013-05-02 16:28:00,77.0,54.6,30.07,SE,128,7.0,12.0,46,0.00,,,0.00,WeatherCatV1.15B25,2013-05-02 20:28:00,
2013-05-02 16:33:00,76.5,55.3,30.07,ESE,120,10.0,16.0,48,0.00,,,0.00,WeatherCatV1.15B25,2013-05-02 20:33:00,
2013-05-02 16:38:00,75.8,54.7,30.07,ESE,109,7.0,11.0,48,0.00,,,0.00,WeatherCatV1.15B25,2013-05-02 20:38:00,
2013-05-02 16:43:00,75.9,54.2,30.07,SSE,148,10.0,16.0,47,0.00,,,0.00,WeatherCatV1.15B25,2013-05-02 20:43:00,
2013-05-02 16:48:00,76.1,56.1,30.07,ESE,117,7.0,10.0,50,0.00,,,0.00,WeatherCatV1.15B25,2013-05-02 20:48:00,
2013-05-02 16:53:00,76.5,54.2,30.07,ESE,105,7.0,13.0,46,0.00,,,0.00,WeatherCatV1.15B25,2013-05-02 20:53:00,
2013-05-02 16:58:00,76.5,54.2,30.07,SSE,157,5.0,13.0,46,0.00,,,0.00,WeatherCatV1.15B25,2013-05-02 20:58:00,
2013-05-02 17:03:00,76.7,55.5,30.06,SSE,152,9.0,12.0,48,0.00,,,0.00,WeatherCatV1.15B25,2013-05-02 21:03:00,
2013-05-02 17:08:00,76.4,53.5,30.07,SE,126,7.0,13.0,45,0.00,,,0.00,WeatherCatV1.15B25,2013-05-02 21:08:00,
2013-05-02 17:13:00,76.4,54.7,30.06,SSW,198,10.0,12.0,47,0.00,,,0.00,WeatherCatV1.15B25,2013-05-02 21:13:00,
2013-05-02 17:18:00,76.2,55.1,30.06,East,98,7.0,10.0,48,0.00,,,0.00,WeatherCatV1.15B25,2013-05-02 21:18:00,
2013-05-02 17:23:00,76.1,54.4,30.06,SSE,153,3.0,13.0,47,0.00,,,0.00,WeatherCatV1.15B25,2013-05-02 21:23:00,
2013-05-02 17:28:00,75.9,54.2,30.06,ESE,115,5.0,11.0,47,0.00,,,0.00,WeatherCatV1.15B25,2013-05-02 21:28:00,
2013-05-02 17:33:00,75.5,54.4,30.06,SE,137,6.0,11.0,48,0.00,,,0.00,WeatherCatV1.15B25,2013-05-02 21:33:00,
2013-05-02 17:38:00,74.5,53.5,30.06,SE,139,9.0,11.0,48,0.00,,,0.00,WeatherCatV1.15B25,2013-05-02 21:38:00,
2013-05-02 17:43:00,73.9,53.0,30.06,ESE,119,9.0,17.0,48,0.00,,,0.00,WeatherCatV1.15B25,2013-05-02 21:43:00,
2013-05-02 17:48:00,73.6,53.8,30.06,SSE,159,9.0,12.0,50,0.00,,,0.00,WeatherCatV1.15B25,2013-05-02 21:48:00,
2013-05-02 17:53:00,73.7,53.3,30.06,SE,143,2.0,13.0,49,0.00,,,0.00,WeatherCatV1.15B25,2013-05-02 21:53:00,
2013-05-02 17:58:00,73.8,53.4,30.06,SE,132,5.0,11.0,49,0.00,,,0.00,WeatherCatV1.15B25,2013-05-02 21:58:00,
2013-05-02 18:03:00,73.8,52.9,30.06,ESE,103,7.0,11.0,48,0.00,,,0.00,WeatherCatV1.15B25,2013-05-02 22:03:00,
2013-05-02 18:08:00,73.8,54.5,30.06,SSE,153,6.0,9.0,51,0.00,,,0.00,WeatherCatV1.15B25,2013-05-02 22:08:00,
2013-05-02 18:13:00,73.7,53.3,30.06,East,98,8.0,15.0,49,0.00,,,0.00,WeatherCatV1.15B25,2013-05-02 22:13:00,
2013-05-02 18:18:00,73.5,53.2,30.06,ESE,109,8.0,15.0,49,0.00,,,0.00,WeatherCatV1.15B25,2013-05-02 22:18:00,
2013-05-02 18:23:00,73.5,53.2,30.06,SE,136,9.0,19.0,49,0.00,,,0.00,WeatherCatV1.15B25,2013-05-02 22:23:00,
2013-05-02 18:28:00,73.3,53.0,30.06,SE,126,7.0,8.0,49,0.00,,,0.00,WeatherCatV1.15B25,2013-05-02 22:28:00,
2013-05-02 18:33:00,73.0,52.1,30.06,SSE,149,13.0,13.0,48,0.00,,,0.00,WeatherCatV1.15B25,2013-05-02 22:33:00,
2013-05-02 18:38:00,72.8,52.5,30.06,ESE,114,8.0,10.0,49,0.00,,,0.00,WeatherCatV1.15B25,2013-05-02 22:38:00,
2013-05-02 18:43:00,72.6,51.8,30.06,SE,135,12.0,16.0,48,0.00,,,0.00,WeatherCatV1.15B25,2013-05-02 22:43:00,
2013-05-02 18:48:00,72.3,50.9,30.06,SE,145,8.0,15.0,47,0.00,,,0.00,WeatherCatV1.15B25,2013-05-02 22:48:00,
2013-05-02 18:53:00,72.4,51.0,30.06,SE,128,7.0,11.0,47,0.00,,,0.00,WeatherCatV1.15B25,2013-05-02 22:53:00,
2013-05-02 18:58:00,72.4,51.0,30.06,ESE,117,5.0,16.0,47,0.00,,,0.00,WeatherCatV1.15B25,2013-05-02 22:58:00,
2013-05-02 19:03:00,72.2,51.4,30.05,ESE,117,9.0,17.0,48,0.00,,,0.00,WeatherCatV1.15B25,2013-05-02 23:03:00,
2013-05-02 19:08:00,72.0,50.7,30.05,SE,130,8.0,14.0,47,0.00,,,0.00,WeatherCatV1.15B25,2013-05-02 23:08:00,
2013-05-02 19:13:00,71.9,50.6,30.05,SE,142,5.0,15.0,47,0.00,,,0.00,WeatherCatV1.15B25,2013-05-02 23:13:00,
2013-05-02 19:18:00,71.7,50.9,30.05,ESE,107,9.0,14.0,48,0.00,,,0.00,WeatherCatV1.15B25,2013-05-02 23:18:00,
2013-05-02 19:23:00,71.4,50.1,30.05,SE,126,5.0,12.0,47,0.00,,,0.00,WeatherCatV1.15B25,2013-05-02 23:23:00,
2013-05-02 19:28:00,71.2,50.5,30.05,SE,130,12.0,12.0,48,0.00,,,0.00,WeatherCatV1.15B25,2013-05-02 23:28:00,
2013-05-02 19:33:00,70.9,49.7,30.06,SE,130,9.0,11.0,47,0.00,,,0.00,WeatherCatV1.15B25,2013-05-02 23:33:00,
2013-05-02 19:38:00,70.7,50.0,30.06,South,180,8.0,12.0,48,0.00,,,0.00,WeatherCatV1.15B25,2013-05-02 23:38:00,
2013-05-02 19:43:00,70.4,50.3,30.06,East,99,6.0,13.0,49,0.00,,,0.00,WeatherCatV1.15B25,2013-05-02 23:43:00,
2013-05-02 19:48:00,70.2,50.7,30.06,SSE,153,3.0,9.0,50,0.00,,,0.00,WeatherCatV1.15B25,2013-05-02 23:48:00,
2013-05-02 19:53:00,69.9,50.4,30.06,SE,134,3.0,5.0,50,0.00,,,0.00,WeatherCatV1.15B25,2013-05-02 23:53:00,
2013-05-02 19:58:00,69.5,51.1,30.06,ESE,121,5.0,6.0,52,0.00,,,0.00,WeatherCatV1.15B25,2013-05-02 23:58:00,
2013-05-02 20:03:00,69.2,50.8,30.06,ESE,109,5.0,7.0,52,0.00,,,0.00,WeatherCatV1.15B25,2013-05-03 00:03:00,
2013-05-02 20:08:00,68.8,51.0,30.06,SE,142,7.0,9.0,53,0.00,,,0.00,WeatherCatV1.15B25,2013-05-03 00:08:00,
2013-05-02 20:13:00,68.3,50.5,30.06,ESE,121,5.0,10.0,53,0.00,,,0.00,WeatherCatV1.15B25,2013-05-03 00:13:00,
2013-05-02 20:18:00,67.8,50.0,30.06,ESE,113,4.0,10.0,53,0.00,,,0.00,WeatherCatV1.15B25,2013-05-03 00:18:00,
2013-05-02 20:23:00,67.4,49.7,30.06,ESE,118,9.0,10.0,53,0.00,,,0.00,WeatherCatV1.15B25,2013-05-03 00:23:00,
2013-05-02 20:28:00,67.0,49.8,30.06,SE,138,8.0,10.0,54,0.00,,,0.00,WeatherCatV1.15B25,2013-05-03 00:28:00,
2013-05-02 20:33:00,66.6,49.4,30.07,SE,138,5.0,8.0,54,0.00,,,0.00,WeatherCatV1.15B25,2013-05-03 00:33:00,
2013-05-02 20:38:00,66.3,49.6,30.07,SE,141,3.0,7.0,55,0.00,,,0.00,WeatherCatV1.15B25,2013-05-03 00:38:00,
2013-05-02 20:43:00,65.8,49.2,30.07,SSE,155,3.0,9.0,55,0.00,,,0.00,WeatherCatV1.15B25,2013-05-03 00:43:00,
2013-05-02 20:48:00,65.5,49.4,30.06,SE,140,4.0,5.0,56,0.00,,,0.00,WeatherCatV1.15B25,2013-05-03 00:48:00,
2013-05-02 20:53:00,65.2,49.1,30.06,ESE,117,5.0,7.0,56,0.00,,,0.00,WeatherCatV1.15B25,2013-05-03 00:53:00,
2013-05-02 20:58:00,64.9,48.8,30.06,SSE,153,3.0,5.0,56,0.00,,,0.00,WeatherCatV1.15B25,2013-05-03 00:58:00,
2013-05-02 21:03:00,64.7,48.6,30.06,SE,131,3.0,7.0,56,0.00,,,0.00,WeatherCatV1.15B25,2013-05-03 01:03:00,
2013-05-02 21:08:00,64.3,48.7,30.06,SE,130,3.0,6.0,57,0.00,,,0.00,WeatherCatV1.15B25,2013-05-03 01:08:00,
2013-05-02 21:13:00,64.1,48.5,30.07,SE,126,6.0,8.0,57,0.00,,,0.00,WeatherCatV1.15B25,2013-05-03 01:13:00,
2013-05-02 21:18:00,64.0,48.5,30.07,ESE,119,2.0,4.0,57,0.00,,,0.00,WeatherCatV1.15B25,2013-05-03 01:18:00,
2013-05-02 21:23:00,63.8,48.3,30.07,SE,126,2.0,4.0,57,0.00,,,0.00,WeatherCatV1.15B25,2013-05-03 01:23:00,
2013-05-02 21:28:00,63.6,48.1,30.07,SE,126,5.0,5.0,57,0.00,,,0.00,WeatherCatV1.15B25,2013-05-03 01:28:00,
2013-05-02 21:33:00,63.4,47.9,30.07,ESE,121,2.0,4.0,57,0.00,,,0.00,WeatherCatV1.15B25,2013-05-03 01:33:00,
2013-05-02 21:38:00,63.2,47.7,30.07,SE,138,3.0,7.0,57,0.00,,,0.00,WeatherCatV1.15B25,2013-05-03 01:38:00,
2013-05-02 21:43:00,63.0,47.5,30.07,SE,145,4.0,8.0,57,0.00,,,0.00,WeatherCatV1.15B25,2013-05-03 01:43:00,
2013-05-02 21:48:00,62.9,47.0,30.07,SE,133,4.0,6.0,56,0.00,,,0.00,WeatherCatV1.15B25,2013-05-03 01:48:00,
2013-05-02 21:53:00,62.7,47.2,30.07,ESE,119,3.0,4.0,57,0.00,,,0.00,WeatherCatV1.15B25,2013-05-03 01:53:00,
2013-05-02 21:58:00,62.5,47.1,30.08,SE,138,3.0,7.0,57,0.00,,,0.00,WeatherCatV1.15B25,2013-05-03 01:58:00,
2013-05-02 22:03:00,62.3,46.9,30.07,SSE,149,3.0,5.0,57,0.00,,,0.00,WeatherCatV1.15B25,2013-05-03 02:03:00,
2013-05-02 22:08:00,62.1,46.7,30.08,SE,131,3.0,5.0,57,0.00,,,0.00,WeatherCatV1.15B25,2013-05-03 02:08:00,
2013-05-02 22:13:00,62.0,46.1,30.07,ESE,118,3.0,11.0,56,0.00,,,0.00,WeatherCatV1.15B25,2013-05-03 02:13:00,
2013-05-02 22:18:00,61.9,46.5,30.07,SE,144,3.0,4.0,57,0.00,,,0.00,WeatherCatV1.15B25,2013-05-03 02:18:00,
2013-05-02 22:23:00,61.8,46.4,30.07,ESE,122,3.0,5.0,57,0.00,,,0.00,WeatherCatV1.15B25,2013-05-03 02:23:00,
2013-05-02 22:28:00,61.6,46.2,30.07,ESE,120,5.0,9.0,57,0.00,,,0.00,WeatherCatV1.15B25,2013-05-03 02:28:00,
2013-05-02 22:33:00,61.6,46.2,30.07,ESE,121,5.0,8.0,57,0.00,,,0.00,WeatherCatV1.15B25,2013-05-03 02:33:00,
2013-05-02 22:38:00,61.4,46.0,30.08,SE,128,5.0,5.0,57,0.00,,,0.00,WeatherCatV1.15B25,2013-05-03 02:38:00,
2013-05-02 22:43:00,61.4,46.0,30.08,ESE,107,1.0,3.0,57,0.00,,,0.00,WeatherCatV1.15B25,2013-05-03 02:43:00,
2013-05-02 22:48:00,61.3,45.9,30.07,SE,124,7.0,7.0,57,0.00,,,0.00,WeatherCatV1.15B25,2013-05-03 02:48:00,
2013-05-02 22:53:00,61.2,45.8,30.08,SE,139,3.0,6.0,57,0.00,,,0.00,WeatherCatV1.15B25,2013-05-03 02:53:00,
2013-05-02 22:58:00,61.0,45.7,30.07,ESE,113,4.0,4.0,57,0.00,,,0.00,WeatherCatV1.15B25,2013-05-03 02:58:00,
2013-05-02 23:03:00,60.8,45.5,30.07,SE,125,4.0,7.0,57,0.00,,,0.00,WeatherCatV1.15B25,2013-05-03 03:03:00,
2013-05-02 23:08:00,60.7,45.4,30.07,SSE,147,3.0,7.0,57,0.00,,,0.00,WeatherCatV1.15B25,2013-05-03 03:08:00,
2013-05-02 23:13:00,60.5,45.6,30.07,ESE,109,3.0,3.0,58,0.00,,,0.00,WeatherCatV1.15B25,2013-05-03 03:13:00,
2013-05-02 23:18:00,60.3,45.5,30.07,ESE,119,3.0,5.0,58,0.00,,,0.00,WeatherCatV1.15B25,2013-05-03 03:18:00,
2013-05-02 23:23:00,60.1,45.3,30.06,ESE,107,4.0,4.0,58,0.00,,,0.00,WeatherCatV1.15B25,2013-05-03 03:23:00,
2013-05-02 23:28:00,59.9,45.5,30.06,ESE,106,3.0,4.0,59,0.00,,,0.00,WeatherCatV1.15B25,2013-05-03 03:28:00,
2013-05-02 23:33:00,59.8,45.4,30.06,ESE,113,2.0,6.0,59,0.00,,,0.00,WeatherCatV1.15B25,2013-05-03 03:33:00,
2013-05-02 23:38:00,59.6,45.3,30.06,SE,138,2.0,3.0,59,0.00,,,0.00,WeatherCatV1.15B25,2013-05-03 03:38:00,
2013-05-02 23:43:00,59.5,45.6,30.06,SE,128,1.0,4.0,60,0.00,,,0.00,WeatherCatV1.15B25,2013-05-03 03:43:00,
2013-05-02 23:48:00,59.4,45.5,30.06,ESE,119,2.0,3.0,60,0.00,,,0.00,WeatherCatV1.15B25,2013-05-03 03:48:00,
2013-05-02 23:53:00,59.2,45.3,30.06,SE,134,3.0,4.0,60,0.00,,,0.00,WeatherCatV1.15B25,2013-05-03 03:53:00,
2013-05-02 23:58:00,59.1,45.7,30.06,SE,126,3.0,4.0,61,0.00,,,0.00,WeatherCatV1.15B25,2013-05-03 03:58:00,